CAPE
1043 959 1026 992 1169 1313 1045 902 1132 1255 1083 1205 1618 1818 1933 1973 1882 1898 2020 2078 2420 2638 2728 2885 3016 3126 3110 2956 2838 2927 2951 2804 2645 2530 2378 2008 1790 1617 1174 536 466 0
1097 946 1048 1103 1021 1236 1330 1009 1046 1310 1359 1183 1572 1796 1923 2007 1988 1937 1960 1985 2302 2575 2684 2857 2987 3054 3081 3037 2909 2873 2844 2794 2686 2568 2477 2143 1708 1514 1312 661 147 9
1120 1000 1004 1156 1169 1122 1337 1376 1172 1209 1461 1489 1537 1826 1923 2014 2034 1946 1980 1963 2134 2450 2584 2804 2979 3064 3085 3065 3023 2918 2715 2755 2729 2650 2511 2319 2052 1822 1439 1033 531 32
1148 1135 1090 1163 1261 1249 1238 1521 1490 1348 1295 1609 1695 1872 1963 2028 2028 1952 1926 2345 2099 2334 2506 2723 2938 3069 3150 3163 3105 2942 2745 2612 2690 2677 2544 2320 2156 2027 1611 1189 650 634
1182 1222 1215 1228 1331 1406 1390 1500 1668 1608 1461 1414 1728 1903 2087 2145 2100 2008 1892 2018 2214 2308 2440 2595 2830 2947 3100 3193 3168 2995 2756 2647 2518 2508 2414 2292 2189 2085 1837 1436 1005 706
1251 1254 1298 1313 1372 1484 1531 1552 1736 1798 1691 1526 1585 1992 2103 2265 2231 2148 2007 1900 2197 2388 2464 2513 2684 2851 2922 3057 3066 2916 2783 2724 2537 2319 2343 2257 2221 2169 1981 1679 1418 1087
1396 1381 1388 1394 1390 1442 1522 1562 1676 1932 1918 1771 1662 1909 2184 2263 2358 2269 2177 2020 2033 2371 2513 2547 2577 2745 2840 2884 2906 2849 2774 2778 2646 2408 2384 2289 2252 2262 2099 1841 1649 1410
1495 1522 1522 1499 1462 1448 1455 1468 1530 1768 2077 2028 1864 1849 2209 2307 2280 2371 2342 2253 2151 2194 2466 2574 2593 2628 2782 2830 2805 2764 2737 2714 2652 2498 2459 2373 2307 2317 2231 2064 1824 1593
1591 1612 1616 1591 1563 1526 1511 1466 1426 1447 1756 2187 2162 2038 2120 2360 2364 2254 2280 2350 2328 2292 2318 2488 2599 2605 2662 2811 2814 2774 2727 2660 2601 2576 2520 2453 2396 2342 2288 2182 2006 1771
1743 1669 1656 1666 1643 1635 1599 1573 1485 1402 1371 1742 2253 2329 2269 2316 2461 2451 2322 2238 2232 2290 2326 2392 2507 2578 2579 2693 2793 2785 2764 2704 2668 2644 2581 2488 2414 2327 2267 2228 2097 1895
1841 1759 1690 1675 1686 1689 1688 1653 1586 1501 1403 1396 1685 2229 2475 2437 2439 2556 2532 2410 2272 2202 2279 2391 2469 2545 2578 2606 2745 2794 2785 2755 2713 2697 2692 2608 2482 2402 2299 2163 2045 1875
1827 1778 1730 1692 1678 1683 1721 1727 1688 1603 1516 1462 1443 1674 2203 2550 2518 2475 2591 2626 2524 2411 2308 2324 2447 2570 2613 2625 2718 2837 2838 2808 2769 2720 2721 2741 2660 2494 2402 2232 2011 1836
1861 1806 1764 1722 1694 1684 1673 1706 1724 1712 1659 1583 1532 1521 1684 2190 2589 2554 2444 2557 2718 2717 2633 2512 2383 2514 2654 2679 2703 2808 2891 2878 2839 2786 2718 2706 2745 2707 2550 2398 2194 1965
2027 1939 1869 1802 1749 1703 1654 1637 1686 1732 1751 1720 1647 1604 1604 1729 2156 2544 2555 2419 2435 2601 2689 2628 2509 2398 2558 2698 2702 2730 2844 2904 2893 2832 2755 2668 2647 2684 2664 2564 2413 2202
2235 2149 2055 1957 1875 1785 1709 1653 1635 1683 1755 1788 1768 1714 1681 1717 1817 2161 2486 2535 2402 2330 2455 2533 2484 2402 2352 2560 2692 2710 2729 2820 2860 2834 2764 2680 2600 2558 2566 2557 2488 2362
2328 2297 2236 2140 2044 1938 1829 1737 1658 1657 1705 1797 1870 1852 1787 1775 1814 1939 2221 2456 2503 2435 2356 2432 2522 2470 2385 2362 2528 2638 2674 2698 2739 2764 2758 2679 2573 2474 2454 2473 2464 2377
2542 2416 2377 2296 2203 2077 1964 1856 1757 1689 1703 1742 1836 1966 1950 1884 1896 1950 2094 2288 2437 2476 2418 2344 2416 2596 2598 2488 2458 2543 2583 2604 2635 2679 2703 2680 2601 2482 2366 2352 2397 2397
2818 2743 2627 2468 2348 2234 2100 1982 1876 1763 1715 1738 1755 1872 2044 2064 2024 2032 2106 2255 2398 2475 2473 2408 2346 2379 2623 2743 2673 2597 2571 2556 2578 2614 2651 2653 2622 2546 2439 2319 2276 2319
3166 3150 3094 2990 2810 2582 2305 2134 2004 1885 1768 1728 1749 1774 1918 2109 2157 2133 2128 2187 2353 2500 2554 2568 2511 2428 2426 2652 2858 2843 2752 2679 2607 2605 2629 2663 2656 2625 2558 2459 2342 2258
3518 3478 3454 3389 3265 3071 2797 2446 2195 2028 1882 1796 1765 1739 1743 1922 2121 2187 2156 2119 2172 2342 2515 2603 2663 2661 2624 2567 2684 2900 2974 2929 2805 2679 2634 2633 2673 2703 2679 2624 2543 2445
3763 3714 3659 3600 3513 3398 3202 2883 2479 2209 2048 1900 1836 1795 1747 1781 1986 2104 2148 2140 2109 2138 2290 2472 2578 2690 2795 2797 2745 2756 2928 3028 2974 2851 2766 2698 2672 2719 2771 2756 2725 2667
3888 3842 3796 3736 3673 3584 3445 3233 2916 2478 2197 2052 1908 1841 1810 1778 1871 2066 2181 2204 2185 2114 2121 2268 2465 2602 2762 2893 2933 2897 2866 2958 2996 2935 2865 2814 2779 2749 2784 2829 2847 2838
3946 3916 3877 3845 3783 3687 3551 3379 3176 2904 2488 2217 2085 1944 1840 1817 1828 1990 2234 2372 2416 2389 2301 2272 2400 2592 2751 2866 2987 3036 3010 2977 2966 2949 2912 2889 2870 2850 2828 2836 2899 2944
3958 3950 3932 3887 3828 3732 3616 3468 3299 3102 2846 2460 2277 2132 1983 1864 1832 1878 2082 2348 2519 2593 2582 2522 2450 2530 2784 2956 3016 3107 3143 3107 3042 2966 2920 2882 2884 2898 2893 2873 2861 2893
3916 3963 3944 3901 3835 3769 3648 3536 3402 3206 3002 2771 2517 2296 2168 2012 1904 1908 1969 2123 2364 2599 2753 2787 2752 2696 2688 2922 3138 3223 3258 3244 3187 3104 3034 3005 2989 3002 2992 2995 2991 2945
3781 3877 3907 3907 3858 3756 3658 3571 3451 3304 3119 2955 2764 2557 2364 2223 2090 1998 2022 2094 2170 2328 2537 2763 2900 2955 2948 2916 3008 3239 3367 3403 3368 3306 3268 3236 3216 3204 3194 3194 3203 3231
Wind_Speed
2 3 4 3 2 3 3 2 2 2 2 1 2 3 4 5 5 6 7 6 7 8 8 9 9 10 11 12 12 12 12 13 12 12 12 12 11 11 11 10 9 nan
2 3 5 4 4 5 5 3 2 1 1 1 0 1 1 3 4 6 6 7 7 8 8 8 9 9 10 10 11 12 12 12 13 12 14 15 14 14 13 12 11 nan
5 5 4 2 2 3 3 4 3 2 1 0 1 2 2 2 4 4 5 7 8 8 9 9 9 9 10 10 11 11 12 12 13 13 14 16 15 16 15 15 13 nan
5 4 4 3 3 3 3 3 3 3 3 3 1 1 2 3 4 6 6 7 8 9 9 9 10 10 11 11 12 12 12 12 12 13 14 13 15 16 16 15 15 14
6 6 7 6 5 5 5 5 3 3 2 1 1 2 2 3 4 5 6 7 8 8 9 10 10 11 12 12 13 13 13 12 12 13 14 14 14 15 15 15 16 17
9 8 7 7 7 6 6 6 5 3 3 2 2 1 2 3 4 6 7 8 8 9 10 10 11 11 13 13 14 14 15 14 14 14 14 15 14 14 14 15 16 17
6 6 5 7 8 9 8 8 6 5 4 4 2 1 1 3 5 6 7 8 9 10 11 12 12 12 13 14 15 14 15 16 16 16 15 14 14 15 15 16 17 17
6 7 6 6 6 7 7 8 7 6 5 4 3 2 2 4 6 7 7 9 9 10 12 13 14 14 14 15 15 15 15 15 16 17 16 15 15 15 16 16 17 18
6 6 6 5 4 5 5 6 7 7 6 3 2 1 2 4 6 7 8 9 10 10 11 12 14 15 15 16 16 16 16 15 16 17 18 17 16 17 17 17 17 17
5 5 4 4 4 4 4 5 6 6 5 3 2 1 4 4 6 7 7 8 9 10 12 13 14 15 15 16 16 16 15 15 15 16 16 17 18 17 17 17 19 18
4 4 4 3 3 4 4 5 5 5 4 3 2 3 4 5 5 6 6 7 8 11 13 14 15 15 15 15 14 14 15 14 14 14 15 16 17 17 17 18 18 19
3 3 4 4 4 4 4 4 4 5 4 3 3 3 3 4 5 5 6 9 11 13 14 14 14 14 15 15 14 13 12 11 12 12 13 13 14 15 16 17 17 18
5 5 5 5 4 4 4 3 4 4 4 3 2 3 4 4 4 5 6 9 11 13 13 14 13 13 12 12 12 12 11 10 9 9 10 11 11 13 13 14 15 15
5 5 5 4 4 3 3 3 3 3 3 2 2 3 4 4 4 5 6 8 10 10 11 10 10 10 10 11 11 11 10 10 9 8 8 9 10 11 12 12 13 13
6 6 4 3 1 2 3 3 3 2 1 2 2 2 1 3 4 5 6 8 8 9 8 8 8 9 9 10 11 12 12 12 11 10 9 8 8 9 10 10 10 11
5 5 3 1 1 1 1 1 1 1 1 2 1 1 1 2 3 5 6 7 8 8 7 6 6 6 10 17 16 13 13 12 11 11 12 11 11 10 10 10 11 11
6 4 3 2 2 2 2 2 2 2 1 1 1 1 3 3 3 5 6 6 7 7 7 6 7 7 15 16 18 19 13 11 12 13 13 14 14 14 13 13 13 14
5 5 3 2 3 3 3 3 3 3 2 2 2 2 2 2 3 4 5 5 4 6 6 7 7 11 14 15 17 17 15 11 11 12 13 14 15 15 14 13 14 14
1 2 3 3 4 4 4 5 4 3 2 2 2 1 2 1 2 3 4 4 4 5 6 7 7 11 13 15 15 16 17 15 10 12 13 14 14 14 13 13 12 13
2 3 3 4 5 5 5 5 5 3 3 3 4 4 1 0 1 3 3 3 4 4 4 5 7 9 14 15 16 17 18 16 12 12 12 12 13 13 12 13 14 14
4 4 4 5 6 7 7 5 5 4 5 6 6 3 2 1 1 2 2 2 3 3 3 4 5 10 14 17 17 17 17 14 10 9 8 9 11 11 13 14 15 14
7 7 6 7 8 8 8 7 5 5 5 8 8 7 7 6 5 3 1 1 1 2 3 4 4 11 14 17 19 18 17 10 8 8 8 8 9 10 11 12 13 14
9 10 9 10 10 10 9 8 7 6 7 11 10 8 8 6 4 3 4 3 2 1 3 2 2 7 13 16 17 20 18 13 11 9 8 9 10 11 12 13 14 16
11 12 12 12 12 11 10 8 8 10 10 12 10 9 8 6 8 8 8 7 4 1 0 1 2 5 11 13 16 20 21 17 15 14 12 12 12 13 13 14 17 22
11 12 13 14 14 13 12 10 9 11 12 13 12 11 9 11 12 11 9 8 6 4 2 1 4 7 12 14 16 19 19 15 16 14 13 13 14 14 16 18 20 24
11 12 12 13 15 15 14 12 10 13 14 13 12 12 13 13 13 11 8 8 8 7 7 5 5 9 13 16 19 20 21 16 14 14 13 13 14 15 16 19 22 24
Wind_Direction
233 231 243 231 196 168 137 130 158 113 111 186 9 23 20 17 349 1 8 1 5 4 3 6 4 5 12 16 20 21 18 16 12 5 2 359 0 357 4 13 19 nan
218 228 221 212 193 187 173 163 181 181 147 171 40 346 350 301 345 353 354 356 354 357 350 349 351 352 352 358 4 10 13 13 16 11 8 9 7 359 2 1 6 nan
201 200 203 204 184 168 169 173 175 178 213 121 202 233 274 304 337 349 351 347 349 350 344 341 339 340 339 339 340 350 356 1 8 8 8 13 12 8 7 358 357 nan
186 184 179 169 172 152 151 166 160 167 194 217 206 247 288 304 331 353 351 349 345 344 343 336 337 334 332 332 327 331 338 345 352 351 0 6 10 11 13 3 358 357
184 181 175 170 160 148 149 139 136 153 152 111 224 247 284 312 337 354 350 346 338 339 334 335 329 329 327 326 325 324 324 331 333 338 347 356 1 2 11 6 7 5
188 183 177 169 157 151 145 138 137 134 116 119 53 299 320 336 345 351 349 343 336 333 330 328 326 325 323 323 321 323 321 323 327 331 338 346 349 352 355 2 8 11
188 185 169 169 159 153 149 146 143 129 114 99 137 76 335 336 339 346 341 338 331 325 326 324 324 325 320 319 320 324 322 325 322 327 336 339 337 344 348 352 2 9
179 177 170 174 161 158 153 145 138 134 124 136 99 71 348 347 337 324 322 326 325 325 323 323 323 326 322 317 321 324 326 319 323 328 334 338 333 340 346 347 352 1
176 173 178 170 160 169 149 134 131 130 141 123 94 58 347 340 338 332 325 324 326 326 324 322 323 323 319 318 321 324 326 325 326 330 335 339 340 346 348 347 349 353
169 175 181 178 169 168 129 114 118 121 127 108 68 351 342 337 334 336 332 333 330 323 323 325 323 321 319 319 321 321 323 328 328 332 337 341 345 349 351 349 352 350
155 170 165 156 143 152 103 96 93 95 99 65 28 358 341 325 326 329 339 338 335 334 331 330 330 324 322 320 317 317 323 327 330 332 338 344 348 351 351 355 355 355
130 133 126 123 122 124 101 91 82 74 64 56 21 8 341 335 344 336 337 342 343 343 338 335 329 326 327 327 327 325 325 329 331 333 338 343 347 351 354 356 358 359
146 142 150 143 138 128 126 112 85 74 60 49 23 19 2 355 353 355 343 341 346 342 341 338 334 331 332 334 335 335 338 340 340 339 339 337 342 350 355 356 358 354
164 166 167 161 156 133 99 85 80 77 67 57 29 29 24 12 0 0 1 350 345 341 346 338 335 338 345 351 351 352 352 356 358 353 349 345 345 349 352 355 355 352
197 187 181 174 124 82 73 70 68 71 60 56 46 46 29 13 9 8 7 2 355 351 353 347 348 355 356 3 9 14 14 17 18 18 13 11 8 5 3 4 1 1
211 200 197 224 325 24 26 27 54 28 14 35 37 30 17 2 10 15 9 6 4 2 360 359 9 11 18 20 19 20 24 28 31 35 39 43 44 43 42 35 31 26
212 208 226 283 322 304 297 317 330 282 292 349 0 359 13 1 2 15 11 4 8 8 11 16 24 28 25 22 25 26 24 30 35 42 46 52 57 58 57 52 48 41
209 223 245 293 299 320 312 289 266 272 279 305 346 11 0 334 3 13 9 3 7 16 22 29 37 34 25 23 25 27 26 31 39 46 47 51 54 56 57 54 48 41
225 265 303 317 327 320 297 278 277 271 274 291 359 333 256 319 9 351 9 15 18 17 29 37 44 30 21 19 20 23 27 31 44 44 43 45 45 45 43 39 35 29
330 333 332 330 315 307 298 300 295 290 265 249 240 241 239 36 325 352 3 29 38 27 34 43 40 24 12 13 14 17 20 20 39 37 37 37 32 28 23 21 18 14
306 306 304 294 296 296 297 307 308 272 255 244 246 254 250 233 262 315 342 16 37 39 52 47 35 17 3 6 7 8 12 9 28 32 35 30 24 16 13 11 7 2
299 296 293 290 292 290 297 306 300 285 263 243 236 226 218 215 210 220 285 344 8 21 48 55 31 7 357 357 357 356 353 348 5 23 32 28 16 5 1 358 354 350
298 301 301 301 297 299 306 301 284 267 244 236 232 228 227 227 222 230 228 226 234 298 31 47 26 348 345 347 345 341 324 329 339 350 5 10 4 349 344 345 340 337
294 301 304 304 302 311 311 290 266 246 245 241 236 233 228 223 225 222 222 223 227 210 202 187 222 290 322 330 330 325 324 323 322 327 340 343 343 337 330 329 331 340
284 296 303 308 313 316 310 300 272 250 243 242 232 228 225 227 231 231 230 233 233 220 213 202 215 261 304 318 323 322 321 310 309 312 323 327 323 324 320 318 317 320
268 284 294 305 313 311 310 308 278 248 242 244 236 229 227 230 234 237 244 245 245 241 238 244 248 255 283 314 317 321 326 308 296 304 317 318 312 311 310 309 310 309